[ hide orbit diagram ]
For accurate long-term ephemerides, please instead use our Horizons system.This orbit viewer was implemented using two-body methods, and hence should not be used for determining accurate long-term trajectories (over several years or decades) or planetary encounter circumstances.
Orbital Elements at Epoch 2459000.5 (2020-May-31.0) TDB
Reference: JPL 25 (heliocentric ecliptic J2000)
Element | Value | Uncertainty (1-sigma) | Units |
e | .1747553215365561 | 3.1468e-08 | |
a | 2.427791819193987 | 9.8541e-09 | au |
q | 2.003522279206921 | 7.3943e-08 | au |
i | 2.297411069125788 | 3.4341e-06 | deg |
node | 90.89343316309348 | 0.0001234 | deg |
peri | 346.2877252756272 | 0.00012439 | deg |
M | 99.4143153973183 | 1.7113e-05 | deg |
tp | 2458618.940722503939 (2019-May-15.44072250) | 6.4432e-05 | TDB |
period | 1381.705837329413 3.78 | 8.4123e-06 2.303e-08 | d yr |
n | .2605474988046766 | 1.5863e-09 | deg/d |
Q | 2.852061359181052 | 1.1576e-08 | au |
|
| | Orbit Determination Parameters
Additional Information
|
[ show covariance matrix ]
Physical Parameter Table
Parameter |
Symbol |
Value |
Units |
Sigma |
Reference |
Notes |
absolute magnitude |
H |
16.10 |
|
n/a |
E2021B10 |
|
|
70240 (1999 RP71) Discovered 1999-Sep-07 by LINEAR at Socorro |
Reference: 20031109/Numbers.arc | Last Updated: 2004-04-19 |
|
[ show close-approach data ]
|